Location: Friaudour
(46.0460°N, 1.2873°E)
Time: 08:38:11
(UTC+00:00)

UNK - Pass Details

Date: 14 July 2020
Orbit: 667 x 686 km, 98.1° (Epoch: 14 August)

Event Time Altitude Azimuth Distance (km) Brightness Sun altitude
Exits shadow 01:33:04 32° 162° (SSE) 1,147 4.5 -19.2°
Maximum altitude 01:35:12 86° 78° (ENE) 684 3.7 -19.0°
Drops below altitude 10° 01:39:52 10° 347° (NNW) 2,128 7.1 -18.7°
Sets 01:42:07 0° 348° (NNW) 3,050 8.0 -18.5°
